Regional Weather Roundup
Issued by NWS

Home | Current Version | Previous Version | Text Only | Print | Product List | Glossary On
Versions: 1 2 3 4 5 6 7 8 9 10 11 12 13 14 15 16 17 18 19 20 21 22 23 24 25 26 27 28 29 30 31 32 33 34 35 36 37 38 39 40 41 42 43 44 45 46 47 48 49 50
000
ASUS43 KMPX 241301
RWRMN
WEATHER ROUNDUP FOR MINNESOTA
NATIONAL WEATHER SERVICE TWIN CITIES/CHANHASSEN MN
800 AM CDT SUN SEP 24 2017


NOTE: "FAIR" INDICATES FEW OR NO CLOUDS BELOW 12,000 FEET WITH NO
SIGNIFICANT WEATHER AND/OR OBSTRUCTIONS TO VISIBILITY. N/A MEANS
CURRENT SKY AND/OR WEATHER CONDITIONS ARE NOT AVAILABLE.

MNZ060>063-068>070-241400-
   Twin Cities Metro

CITY           SKY/WX    TMP DP  RH WIND       PRES   REMARKS
TWIN CITIES    PTCLDY    71  64  78 SE6       29.95R
ST PAUL        CLEAR     68  65  90 SE7       29.95S
CRYSTAL        CLEAR     70  62  76 SE6       29.93R
BLAINE         PTCLDY    72  66  83 SE6       29.94S
LAKEVILLE      CLEAR     66  63  88 S3        29.96R
EDEN PRAIRIE   CLEAR     71  64  78 SE5       29.93S
SOUTH ST PAUL  CLEAR     70  62  75 S5        29.95S
LAKE ELMO      FAIR      70  63  78 SE5       29.97S
$$
MNZ001>005-007-008-013>017-022>024-027-028-241400-
   Northwest Minnesota

CITY           SKY/WX    TMP DP  RH WIND       PRES   REMARKS
BEMIDJI        CLOUDY    60  60 100 S8        29.87R
HALLOCK        LGT RAIN  52  50  93 N12       29.91F
ROSEAU         RAIN      54  48  82 N8        29.89S
THIEF RVR FALL RAIN      55  54  94 N7        29.88F
CROOKSTON      LGT RAIN  54  54 100 N10       29.88F
FOSSTON        DRIZZLE   55  55 100 E3        29.87S
DETROIT LAKES  CLOUDY    63  61  94 SE5       29.87F
MOORHEAD       CLOUDY    55  55 100 CALM      29.86F
PARK RAPIDS    LGT RAIN  63  61  93 S10       29.88R FOG
MAHNOMEN       CLOUDY    58  58 100 E5        29.85F
$$
MNZ006-009>011-018-025>026-241400-
   North Central Minnesota

CITY           SKY/WX    TMP DP  RH WIND       PRES   REMARKS
BAUDETTE       LGT RAIN  57  57 100 E6        29.87F
FLAG ISLAND    LGT RAIN  55  54  94 NE8       29.89F
INTL FALLS     CLOUDY    59  58  96 E6        29.89F
WASKISH        RAIN      55  55 100 E6        29.87  VSB 3/4
BIG FORK       CLOUDY    59  57  94 CALM      29.89F
LONGVILLE      CLOUDY    63  61  94 SE5       29.88F FOG
GRAND RAPIDS   FOG       62  61  96 SE12      29.92S VSB 1/2
CRANE LAKE     CLOUDY    57  57 100 CALM      29.93F
ORR            PTCLDY    61  57  88 SE5       29.88F
COOK           MOCLDY    61  61 100 E3        29.92S
WALKER         CLOUDY    62  61  97 S5        29.88R
$$
MNZ012-019>021-037-241400-
   Northeast Minnesota

CITY           SKY/WX    TMP DP  RH WIND       PRES   REMARKS
DULUTH         FOG       63  63 100 SE9       29.96F VSB 1/8
ELY            CLEAR     61  61 100 CALM      29.94F
HIBBING        FOG       60  60 100 SE6       29.92F VSB 1
EVELETH        CLOUDY    63  60  91 CALM      29.94F FOG
DULUTH HARBOR  FOG       63  61  94 NE7       29.96F VSB 1/4
GRAND MARAIS     N/A     64  63  96 NE6       29.97S
$$
MNZ029>031-032-039>041-046>048-054>057-064-241400-
   West Central Minnesota

CITY           SKY/WX    TMP DP  RH WIND       PRES   REMARKS
FERGUS FALLS   CLOUDY    61  61 100 CALM      29.85F FOG
WHEATON        FOG       61  57  88 CALM      29.86F VSB 3/4
ALEXANDRIA     MOCLDY    63  63 100 SE7       29.89S
ELBOW LAKE     RAIN      62  62 100 E5        29.86F
WADENA         RAIN      61  61 100 SE6       29.87S
GLENWOOD       MOCLDY    63  63 100 SE10      29.88F FOG
APPLETON       CLOUDY    63  61  94 S5        29.86S
BENSON         PTCLDY    64  63  94 SW6       29.88S
ORTONVILLE     CLOUDY    61  59  94 N6        29.85F FOG
MADISON        CLOUDY    63  63 100 SE5       29.86S FOG
WILLMAR        FAIR      66  64  94 SE10      29.90S
$$
MNZ033>034-036-042>043-049>051-058-059-241400-
   Central Minnesota

CITY           SKY/WX    TMP DP  RH WIND       PRES   REMARKS
ST CLOUD       CLEAR     64  64 100 SE6       29.91S
SAUK CENTRE    FAIR      63  63 100 SE6       29.89S FOG
PAYNESVILLE    CLOUDY    65  64  97 SE8       29.91S
AITKIN         PTCLDY    63  61  94 SE8       29.89F
PINE RIVER     FOG       61  59  94 SE6       29.92S VSB 1
BRAINERD       CLOUDY    64  63  96 S5        29.89S
STAPLES        CLOUDY    61  61 100 S3        29.89R FOG
LITTLE FALLS   CLEAR     61  61 100 SE6       29.90S
LITCHFIELD     CLEAR     70  68  94 SE6       29.91S
BUFFALO        CLEAR     69  63  80 S6        29.94S
MAPLE LAKE     CLEAR     67  66  97 S3        29.93S
HUTCHINSON     CLOUDY    68  65  91 SE3       29.93S
$$
MNZ037-044-045-052-053-241400-
   East Central Minnesota

CITY           SKY/WX    TMP DP  RH WIND       PRES   REMARKS
PRINCETON      CLEAR     64  63  94 CALM      29.92F
MORA             N/A     61  61 100 CALM      29.94F FOG
RUSH CITY      CLEAR     67  63  87 SE7       29.94S
MOOSE LAKE     PTCLDY    61  61 100 CALM      29.92F FOG
HINCKLEY       FAIR      63  63 100 CALM      29.94S
CLOQUET        FOG       64  63  94 E5        29.95F VSB<1/4
MCGREGOR       PTCLDY    64  63  94 S6        29.92S
$$
MNZ071>073-080-081-089-090-097-098-241400-
   Southwest Minnesota

CITY           SKY/WX    TMP DP  RH WIND       PRES   REMARKS
MONTEVIDEO     PTCLDY    63  63 100 S10       29.87S
GRANITE FALLS  PTCLDY    61  61  99 SE8       29.89F
CANBY          PTCLDY    59  58  97 E3        29.87S
MARSHALL       PTCLDY    62  61  96 S9        29.88S
REDWOOD FALLS  CLOUDY    63  61  93 S12       29.90S
OLIVIA         PTCLDY    63  61  94 SE9       29.89S
PIPESTONE      PTCLDY    70  64  83 S9        29.89S
WORTHINGTON    CLEAR     66  63  90 SE7       29.93S
JACKSON        CLEAR     66  63  88 CALM      29.95S
TRACY          MOCLDY    67  67  98 S10G17    29.90S
SLAYTON        CLOUDY    58  52  81 SE5       29.92S HAZE
$$
MNZ065>067-074>077-082>085-091>093-241400-
   South Central Minnesota

CITY           SKY/WX    TMP DP  RH WIND       PRES   REMARKS
MANKATO        CLEAR     68  63  84 S9        29.95S
NEW ULM        CLEAR     66  64  94 S9        29.93R
ST JAMES       CLEAR     66  64  94 S7        29.95R
FAIRMONT       CLEAR     68  64  87 S9        29.96R
FARIBAULT      CLEAR     70  63  78 S5        29.97S
OWATONNA       PTCLDY    72  63  73 SE10      29.98R
WASECA         PTCLDY    64  61  88 SE6       29.98R
ALBERT LEA     CLEAR     72  64  78 S7        29.99R
$$
MNZ078>079-086>088-094>096-241400-
   Southeast Minnesota

CITY           SKY/WX    TMP DP  RH WIND       PRES   REMARKS
ROCHESTER      CLEAR     68  62  81 SE8       30.01S
RED WING       CLEAR     73  61  64 E5        29.97R
STANTON        CLEAR     70  63  78 S7        29.95S
DODGE CENTER   CLEAR     68  63  83 SE5       30.00S
WINONA         SUNNY     72  64  78 SE6       30.00S
AUSTIN         CLEAR     68  61  77 S3        30.00R
PRESTON        PTSUNNY   67  61  79 S5        30.04R
$$
ABBREVIATIONS USED IN REMARKS
   TC - TEMPERATURES IN CELSIUS
  WCI - WIND CHILL INDEX
   HX - HEAT INDEX
  VSB - VISIBILITY
$$




USA.gov is the U.S. government's official web portal to all federal, state and local government web resources and services.